STARLINK-34757

Last updated on Tue Aug 19 2025 00:02:06 GMT+0000 (Coordinated Universal Time)

1 64850U 25152J 25230.54194168 .00025748 00000+0 65983-3 0 9997 2 64850 97.6017 84.0801 0002251 101.0158 259.1340 15.39358231 4774
UTC large
Height (km)
Speed (km/s)
/
Latitude / Longitude
Inclination (degrees)
Orbital Period (minutes)
Azimuth
Elevation
Range (km)
Doppler Factor

Next 0 passes for location: London (51.5072 / 0.1276)

Sorry there are no passes over London.